Location: American Medical Response
(33.3472°N, 96.5511°W)
Time: 12:29:06
(UTC+00:00)

H-2A R/B (2) - Pass Details

Date: 08 December 2021
Orbit: 446 x 34384 km, 28.7° (Epoch: 22 January)

Event Time Altitude Azimuth Distance (km) Brightness Sun altitude
Exits shadow 12:37:53 - 252° (WSW) 2,913 4.5 -8.4°
Reaches altitude 10° 12:38:56 10° 249° (WSW) 2,482 4.2 -8.2°
Maximum altitude 12:44:06 67° 166° (SSE) 1,820 4.1 -7.2°
Drops below altitude 10° 20:19:22 10° 140° (SE) 30,425 10.4 26.9°
Sets 21:19:04 0° 139° (SE) 22,782 9.6 19.3°
